TimeMDT,TemperatureF,Dew PointF,Humidity,Sea Level PressureIn,VisibilityMPH,Wind Direction,Wind SpeedMPH,Gust SpeedMPH,PrecipitationIn,Events,Conditions,WindDirDegrees,DateUTC
12:53 AM,19.9,17.1,89,30.19,10.0,Calm,Calm,-,N/A,,Partly Cloudy,0,2012-10-27 06:53:00
1:53 AM,19.9,18.0,92,30.17,10.0,Calm,Calm,-,N/A,,Overcast,0,2012-10-27 07:53:00
2:53 AM,23.0,19.0,85,30.15,10.0,Calm,Calm,-,N/A,,Overcast,0,2012-10-27 08:53:00
3:53 AM,21.0,18.0,88,30.14,10.0,Calm,Calm,-,N/A,,Mostly Cloudy,0,2012-10-27 09:53:00
4:53 AM,21.0,17.1,85,30.15,10.0,Calm,Calm,-,N/A,,Clear,0,2012-10-27 10:53:00
5:53 AM,19.9,16.0,85,30.16,10.0,Calm,Calm,-,N/A,,Clear,0,2012-10-27 11:53:00
6:53 AM,19.0,16.0,88,30.17,10.0,Calm,Calm,-,N/A,,Overcast,0,2012-10-27 12:53:00
7:53 AM,21.0,17.1,85,30.18,10.0,NW,4.6,-,N/A,,Overcast,320,2012-10-27 13:53:00
8:53 AM,27.0,17.1,66,30.18,10.0,NW,4.6,-,N/A,,Clear,320,2012-10-27 14:53:00
9:53 AM,34.0,15.1,46,30.15,10.0,Calm,Calm,-,N/A,,Clear,0,2012-10-27 15:53:00
10:53 AM,36.0,9.0,33,30.14,10.0,NNE,5.8,-,N/A,,Clear,30,2012-10-27 16:53:00
11:53 AM,37.9,8.1,29,30.13,10.0,Variable,4.6,17.3,N/A,,Clear,0,2012-10-27 17:53:00
12:53 PM,39.9,10.0,29,30.10,10.0,North,8.1,-,N/A,,Clear,360,2012-10-27 18:53:00
1:53 PM,39.9,12.9,33,30.09,10.0,West,8.1,-,N/A,,Mostly Cloudy,280,2012-10-27 19:53:00
2:53 PM,36.0,18.0,48,30.09,10.0,ENE,5.8,-,N/A,,Mostly Cloudy,60,2012-10-27 20:53:00
3:53 PM,35.1,18.0,50,30.12,10.0,ESE,5.8,-,N/A,,Overcast,120,2012-10-27 21:53:00
4:53 PM,33.1,18.0,54,30.14,10.0,East,8.1,-,N/A,,Overcast,100,2012-10-27 22:53:00
5:53 PM,30.9,18.0,59,30.16,10.0,ESE,4.6,-,N/A,,Mostly Cloudy,120,2012-10-27 23:53:00
6:53 PM,28.0,19.0,69,30.19,10.0,Calm,Calm,-,N/A,,Partly Cloudy,0,2012-10-28 00:53:00
7:53 PM,26.1,19.0,75,30.20,10.0,Calm,Calm,-,N/A,,Mostly Cloudy,0,2012-10-28 01:53:00
8:53 PM,25.0,18.0,75,30.18,10.0,Calm,Calm,-,N/A,,Clear,0,2012-10-28 02:53:00
9:53 PM,24.1,18.0,77,30.16,10.0,North,3.5,-,N/A,,Clear,350,2012-10-28 03:53:00
10:53 PM,23.0,18.0,81,30.17,10.0,NW,3.5,-,N/A,,Mostly Cloudy,320,2012-10-28 04:53:00
11:53 PM,21.9,17.1,82,30.15,10.0,West,3.5,-,N/A,,Partly Cloudy,260,2012-10-28 05:53:00